Zurück zum Katalog

STARLINK-30070

AktivKommunikationVLEO
NORAD 56707·PAYLOAD·🇺🇸 United States

Gestartet May 19, 2023 von Cape Canaveral Space Force Station

Loading…

Nächste Überflüge (nächste 24 Stunden)

TLE

AktuellSource: CelesTrak SupGP

Epoche: Sep 15, 2026, 02:34 UTC

1 56707C 23067V   26258.10743056  .00004588  00000+0  16621-3 0  2583
2 56707  43.0002 281.3986 0001505 263.8520 261.7761 15.27571817    15

Verfolge STARLINK-30070 in Echtzeit mit AllMySat

Download on the App Store